DateTimeUTC,F1_A11,F1_S11,BsB_S11,BsG_S11,BsR_S11,BbsB_S11,BbsG_S11,BbsR_S11,BaB_A11,BaG_A11,BaR_A11,Tu_S11,T_S11,Uu_S11,U_S11,P_S11,T1_A11
2021-07-29T18:00:00Z,00040200,20000000,,,,,,,0000.19,0000.56,-000.04,21.1,27.2,08.7,06.0,0686.0,31.3
2021-07-29T18:01:00Z,00040200,20000000,,,,,,,-000.16,-000.65,-000.07,21.1,27.2,08.5,05.9,0686.0,31.3
2021-07-29T18:02:00Z,00040200,20000000,,,,,,,-000.33,0000.15,-000.18,21.1,27.2,08.5,05.9,0686.0,31.3
2021-07-29T18:03:00Z,00040200,60000000,,,,,,,0000.86,0000.76,0000.86,21.1,27.2,08.5,05.9,0686.0,31.3
2021-07-29T18:04:00Z,00040200,40000000,0005.14,0003.56,0002.46,0000.29,0000.52,0000.35,0000.96,0000.81,0000.51,21.2,27.1,08.6,06.1,0687.0,31.3
2021-07-29T18:05:00Z,00040200,00000000,0004.81,0003.58,0002.70,0000.22,0000.39,0000.68,0001.37,0001.04,0000.70,21.3,27.1,08.6,06.1,0687.0,31.3
2021-07-29T18:06:00Z,00040200,00000000,0005.11,0004.22,0002.23,0000.55,0000.35,0000.40,0000.57,0000.59,0000.64,21.3,27.1,08.6,06.1,0687.0,31.4
2021-07-29T18:07:00Z,00040200,00000000,0005.28,0003.50,0002.41,0000.78,0000.70,0000.64,0000.92,0000.97,0000.58,21.3,27.1,08.6,06.1,0687.0,31.4
2021-07-29T18:08:00Z,00040200,00000000,0005.52,0004.03,0002.44,0000.22,0000.81,0000.68,0000.74,0001.05,0001.12,21.3,27.1,08.7,06.1,0687.0,31.4
2021-07-29T18:09:00Z,00040200,00000000,0005.04,0003.97,0002.64,0000.72,0000.58,0000.65,0001.05,0000.95,-000.01,21.3,27.1,08.7,06.1,0687.0,31.4
2021-07-29T18:10:00Z,00040200,00000000,0005.04,0003.62,0002.58,0000.61,0000.34,0000.71,0000.98,0000.62,0001.05,21.3,27.1,08.6,06.1,0687.0,31.4
2021-07-29T18:11:00Z,00040200,00000000,0005.27,0003.85,0002.33,0000.56,0000.49,0000.81,0000.63,0000.52,0000.49,21.3,27.1,08.6,06.0,0687.0,31.4
2021-07-29T18:12:00Z,00040200,00000000,0005.24,0003.81,0002.13,0000.89,0000.36,0000.69,0001.17,0000.93,0000.63,21.4,27.1,08.5,06.0,0687.1,31.4
2021-07-29T18:13:00Z,00040200,00000000,0005.05,0003.69,0002.44,0000.72,0000.48,0000.34,0000.80,0001.25,0000.62,21.4,27.2,08.5,06.0,0687.1,31.4
2021-07-29T18:14:00Z,00040200,00000000,0004.57,0003.93,0002.43,0001.06,0000.58,0000.70,0000.95,0000.43,0000.70,21.4,27.2,08.5,06.0,0687.1,31.4
2021-07-29T18:15:00Z,00040200,00000000,0004.91,0003.93,0002.39,0001.27,0000.56,0000.32,0001.14,0000.65,0000.54,21.4,27.2,08.5,06.0,0687.1,31.4
2021-07-29T18:16:00Z,00040200,00000000,0004.81,0004.16,0002.08,0000.57,0000.27,0000.45,0000.66,0001.19,0001.08,21.4,27.2,08.6,06.1,0687.1,31.4
2021-07-29T18:17:00Z,00040200,00000000,0005.21,0003.62,0002.76,0000.87,0000.56,0000.82,0000.94,0000.75,0000.45,21.4,27.2,08.5,06.0,0687.1,31.4
2021-07-29T18:18:00Z,00040200,00000000,0005.20,0003.71,0002.76,0000.95,0000.50,0000.70,0001.01,0000.95,0000.57,21.4,27.2,08.6,06.1,0687.1,31.5
2021-07-29T18:19:00Z,00040200,00000000,0004.48,0003.64,0002.71,0000.45,0000.07,0000.67,0001.33,0001.15,0000.99,21.4,27.2,08.6,06.1,0687.1,31.5
2021-07-29T18:20:00Z,00040200,00000000,0004.79,0003.74,0002.24,0000.15,0000.54,-000.08,0000.54,0000.78,0000.67,21.4,27.2,08.6,06.1,0687.1,31.5
2021-07-29T18:21:00Z,00040200,00000000,0004.96,0003.73,0002.56,0000.79,0000.54,0000.46,0000.49,0000.32,0000.50,21.4,27.2,08.6,06.1,0687.1,31.5
2021-07-29T18:22:00Z,00040200,00000000,0004.85,0003.83,0002.35,0000.71,0000.43,0000.87,0001.36,0001.17,0000.94,21.4,27.3,08.6,06.0,0687.1,31.5
2021-07-29T18:23:00Z,00040200,00000000,0005.04,0003.68,0002.50,0000.66,0000.35,0000.52,0000.70,0000.85,0000.35,21.5,27.2,08.7,06.1,0687.0,31.5
2021-07-29T18:24:00Z,00040200,00000000,0004.60,0003.47,0002.19,0000.10,0000.49,0000.43,0000.75,0000.97,0000.42,21.4,27.2,08.6,06.0,0687.0,31.5
2021-07-29T18:25:00Z,00040200,00000000,0004.70,0003.79,0002.38,0000.33,0000.78,0000.84,0000.81,0000.49,0000.46,21.5,27.2,08.6,06.1,0687.0,31.5
2021-07-29T18:26:00Z,00040200,00000000,0004.12,0003.87,0002.31,0000.56,0000.42,0000.49,0001.35,0000.99,0000.85,21.4,27.2,08.6,06.1,0687.0,31.5
2021-07-29T18:27:00Z,00040200,00000000,0005.52,0003.52,0001.87,0000.85,0000.28,0000.27,0001.35,0000.81,0000.70,21.2,27.1,08.6,06.0,0687.0,31.3
2021-07-29T18:28:00Z,00040200,00000000,0005.10,0004.21,0002.72,0000.68,0000.50,0000.51,0001.80,0001.54,0000.65,21.0,26.9,08.7,06.1,0687.0,31.1
2021-07-29T18:29:00Z,00040200,00000000,0005.19,0003.96,0002.26,0000.59,0000.51,0001.00,0001.28,0001.01,0001.25,20.8,26.8,08.7,06.1,0687.0,31.0
2021-07-29T18:30:00Z,00040200,00000000,0005.39,0003.90,0002.32,0000.48,0000.45,0000.46,0001.09,0001.19,0000.58,20.6,26.7,08.9,06.1,0687.0,30.9
2021-07-29T18:31:00Z,00040200,00000000,0004.81,0003.87,0002.57,0000.39,0000.57,0000.97,0000.86,0000.60,0000.34,20.4,26.6,09.1,06.3,0687.1,30.9
2021-07-29T18:32:00Z,00040200,00000000,0005.04,0004.02,0002.84,0000.77,0000.29,0000.73,0000.96,0000.85,0000.67,20.2,26.5,09.1,06.3,0687.0,30.9
2021-07-29T18:33:00Z,00040200,00000000,0005.36,0003.80,0002.24,0000.28,0000.77,0000.54,0000.83,0000.99,0000.63,20.1,26.4,09.3,06.4,0687.0,30.9
2021-07-29T18:34:00Z,00040200,00000000,0005.27,0003.65,0002.41,-000.11,-000.06,0000.30,0000.93,0000.69,0000.66,20.0,26.3,09.3,06.3,0687.0,30.8
2021-07-29T18:35:00Z,00040200,00000000,0005.18,0003.98,0002.68,0000.17,0000.57,0000.37,0000.59,0000.64,0000.62,19.8,26.2,09.3,06.3,0687.0,30.9
2021-07-29T18:36:00Z,00040200,00000000,0005.07,0003.71,0002.49,0000.41,0000.58,0000.24,0001.09,0001.05,0000.41,19.7,26.1,09.4,06.4,0687.0,30.8
2021-07-29T18:37:00Z,00040200,00000000,0004.56,0004.17,0002.34,0000.34,0000.48,0000.23,0000.97,0000.88,0001.10,19.6,26.0,09.5,06.4,0687.0,30.8
2021-07-29T18:38:00Z,00040200,00000000,0005.01,0003.89,0002.45,0000.88,0000.65,0000.70,0000.84,0000.77,0000.41,19.5,26.0,09.4,06.4,0687.0,30.9
2021-07-29T18:39:00Z,00040200,00000000,0004.75,0004.09,0002.61,0000.42,0000.71,0000.36,0000.43,0000.35,0000.22,19.5,25.9,09.5,06.4,0687.0,30.9
2021-07-29T18:40:00Z,00040200,00000000,0005.19,0003.52,0002.55,0000.39,0000.56,0000.72,0000.71,0000.60,0000.39,19.4,25.9,09.4,06.4,0686.9,30.9
2021-07-29T18:41:00Z,00040200,00000000,0005.10,0003.85,0002.67,0000.13,0000.73,0000.58,0000.86,0000.43,0000.46,19.4,25.8,09.4,06.4,0687.0,30.9
2021-07-29T18:42:00Z,00040200,00000000,0004.93,0003.89,0002.51,-000.05,0000.37,0000.39,0000.76,0000.99,0000.57,19.3,25.8,09.4,06.4,0686.9,30.9
2021-07-29T18:43:00Z,00040200,00000000,0005.09,0003.66,0002.55,0000.74,0000.41,0001.08,0001.25,0001.15,0000.88,19.3,25.7,09.4,06.4,0687.0,30.9
2021-07-29T18:44:00Z,00040200,00000000,0005.17,0003.67,0002.60,0001.19,0000.45,0000.59,0001.04,0001.16,0000.96,19.3,25.7,09.6,06.5,0687.0,30.9
2021-07-29T18:45:00Z,00040200,00000000,0005.12,0003.97,0002.59,0000.23,0000.38,0000.66,0000.96,0000.81,0001.12,19.2,25.6,09.6,06.5,0687.0,30.9
2021-07-29T18:46:00Z,00040200,00000000,0005.19,0003.97,0002.34,0000.47,0000.50,0000.75,0000.64,0000.80,0000.29,19.3,25.7,09.7,06.6,0687.0,31.0
2021-07-29T18:47:00Z,00040200,00000000,0005.67,0003.64,0002.39,0000.52,0000.45,0000.51,0001.19,0000.71,0000.32,19.4,25.7,09.8,06.6,0686.9,31.0
2021-07-29T18:48:00Z,00040200,00000000,0005.00,0004.17,0002.86,0000.50,0000.29,0000.54,0000.80,0001.06,0001.27,19.5,25.8,09.7,06.6,0686.9,31.1
2021-07-29T18:49:00Z,00040200,00000000,0005.42,0003.77,0002.11,0000.62,0000.65,0000.47,0001.08,0001.11,0000.68,19.6,25.8,09.7,06.6,0686.9,31.1
2021-07-29T18:50:00Z,00040200,00000000,0005.15,0004.02,0002.27,0000.84,0000.27,0000.67,0000.88,0000.91,0000.90,19.6,25.8,09.6,06.6,0686.9,31.1
2021-07-29T18:51:00Z,00040200,00000000,0005.11,0004.07,0002.18,0000.92,0000.45,0000.64,0001.05,0000.59,0000.22,19.7,25.9,09.6,06.6,0687.0,31.1
2021-07-29T18:52:00Z,00040200,00000000,0004.61,0003.83,0002.22,0000.41,0000.20,0000.09,0001.34,0000.98,0000.78,19.8,25.9,09.4,06.5,0687.0,31.1
2021-07-29T18:53:00Z,00040200,00000000,0005.00,0004.02,0002.94,0000.57,0000.48,0000.61,0000.97,0001.00,0000.97,19.8,25.9,09.5,06.6,0686.9,31.1
2021-07-29T18:54:00Z,00040200,00000000,0004.20,0003.78,0002.06,0000.53,0000.59,0000.67,0000.57,0001.07,0000.51,19.9,25.9,09.5,06.6,0686.9,31.2
2021-07-29T18:55:00Z,00040200,00000000,0004.73,0003.92,0002.23,0000.48,0000.63,0000.59,0000.91,0000.51,0000.68,19.9,25.9,09.4,06.5,0686.9,31.2
2021-07-29T18:56:00Z,00040200,00000000,0005.01,0003.90,0002.45,0000.59,0000.42,0000.31,0001.39,0001.05,0000.98,19.9,25.9,09.4,06.6,0686.9,31.2
2021-07-29T18:57:00Z,00040200,40000000,,,,,,,-000.08,0000.08,-000.31,20.0,26.0,09.6,06.7,0686.7,31.2
2021-07-29T18:58:00Z,00040200,60000000,,,,,,,-000.17,-000.12,0000.27,19.9,26.1,09.3,06.3,0685.9,31.2
2021-07-29T18:59:00Z,00040200,20000000,,,,,,,0000.31,0000.37,0000.12,19.9,26.2,09.2,06.3,0685.9,31.2
